Regional Weather Roundup
Issued by NWS

Home | Current Version | Previous Version | Graphics & Text | Print | Product List | Glossary On
Versions: 1 2 3 4 5 6 7 8 9 10 11 12 13 14 15 16 17 18 19 20 21 22 23 24 25 26 27 28 29 30 31 32 33 34 35 36 37 38 39 40 41 42 43 44 45 46 47 48 49 50
000
ASUS45 KCYS 291610
RWRWY

WYOMING REGIONAL WEATHER ROUNDUP
NATIONAL WEATHER SERVICE CHEYENNE WY
1000 AM MDT SUN MAR 29 2015

NOTE:  "FAIR" INDICATES FEW OR NO CLOUDS BELOW 12,000 FEET
WITH NO SIGNIFICANT WEATHER AND/OR OBSTRUCTIONS TO VISIBILITY.

WYZ001-291700-
YELLOWSTONE NATIONAL PARK

CITY           SKY/WX    TMP DP  RH WIND       PRES   REMARKS
LK YELLOWSTONE   N/A     27  16  63 CALM      30.34F
W YELLOWSTONE  NOT AVBL

$$
WYZ002>013-054>058-071-098>099-291700-
NORTHERN WYOMING

CITY           SKY/WX    TMP DP  RH WIND       PRES   REMARKS
JACKSON        SUNNY     32  21  64 CALM      30.36F
CODY           FAIR      50  16  25 SW15      30.21S
GREYBULL       FAIR      49  23  36 SE5       30.24S
WORLAND        FAIR      50  25  37 W6        30.25F
SHERIDAN       FAIR      51  24  34 N9        30.22F
BUFFALO        FAIR      49  25  39 S20G25    30.23F
GILLETTE       FAIR      49  27  42 NW10      30.22F
HULETT         FAIR      46  32  57 W10G20    30.21F
NEWCASTLE      FAIR      46  30  53 NW24G32   30.22R

$$
WYZ014>020-022>026-101>103-291700-
CENTRAL WYOMING

CITY           SKY/WX    TMP DP  RH WIND       PRES   REMARKS
BIG PINEY      FAIR      38  16  40 CALM      30.36F
PINEDALE       FAIR      34  21  60 CALM      30.37S
DUBOIS         FAIR      43  10  26 N10       30.28F
LANDER         FAIR      48  19  31 N6        30.27F
RIVERTON       FAIR      46  18  32 S10       30.29F
CASPER         FAIR      47  20  34 SW17      30.29F
DOUGLAS        FAIR      49  25  39 NW13G21   30.28F

$$
WYZ021-027>030-104>119-291700-
SOUTHERN WYOMING

CITY           SKY/WX    TMP DP  RH WIND       PRES   REMARKS
EVANSTON       FAIR      41  17  38 NE5       30.36R
KEMMERER       FAIR      41  19  42 CALM      30.36S
FORT BRIDGER   FAIR      43  14  30 W3        30.39S
ROCK SPRINGS   FAIR      42  17  36 SW5       30.36S
DIXON          FAIR      45  21  39 CALM      30.38S
RAWLINS        FAIR      43  17  35 CALM      30.33F
SARATOGA       FAIR      45  16  31 S7        30.34F
LARAMIE        FAIR      41  14  33 W7        30.31S
CHEYENNE       FAIR      45  18  34 N15G21    30.29S
TORRINGTON     FAIR      52  25  35 N17G30    30.27S
PINE BLUFFS    FAIR      46  23  39 N29G38    30.28S

$$


USA.gov is the U.S. government's official web portal to all federal, state and local government web resources and services.